Погода в Стаффорде

Великобритания     52°48′06″N   2°06′49″W
темп.,
°C
ветер,
м/с
пор.,
м/с
влажн.,
%
обл.,
%
осадки,
мм/ч
давл.,
гПа
погр.,
м
20 сентября, пн
пн2001:00+10сз310950 0.0 1020241
04:00+9зсз39966 0.0 1021210
07:00+8сз38960 0.0 1022170
10:00+14ссз46720 0.0 1023380
13:00+18ссз44550 0.0 10241164
16:00+19ссз45505 0.0 10251222
19:00+14сз497321 0.0 1026214
22:00+11сз3883100 0.0 1028153
21 сентября, вт
вт2101:00+10сз249580 0.0 102977
04:00+9зсз23965 0.0 102955
07:00+9зсз239798 0.0 103160
10:00+14сз3582100 0.0 1031336
13:00+18зсз3365100 0.0 1031795
16:00+19зсз3358100 0.0 1030926
19:00+15ссз1176100 0.0 103011
22:00+13зсз118611 0.0 103010
22 сентября, ср
ср2201:00+12зюз118929 0.0 103010
04:00+11зюз129214 0.0 102811
07:00+10зюз22935 0.0 102822
10:00+15зюз47695 0.0 1028357
13:00+20з57570 0.0 1026965
16:00+20з67543 0.0 10241126
19:00+15з5107313 0.0 1023298
22:00+11з379474 0.0 1024161
23 сентября, чт
чт2301:00+11зюз4993100 0.0 1022191
04:00+12зюз51188100 0.0 1020307
07:00+13зюз51186100 0.0 1019426
10:00+15з51085100 0.0 1019580
13:00+17зсз686631 0.1 10181059
16:00+20з67525 0.0 10161312
19:00+14сз35715 0.0 1016109
22:00+12зюз228611 0.0 101624
24 сентября, пт
пт2401:00+11зюз36925 0.0 1015136
04:00+10юз37950 0.0 1013153
07:00+10зюз49965 0.0 1012214
10:00+15з7106699 0.0 1012466
13:00+19з7104960 0.0 1011863
16:00+20зюз794512 0.0 1010901
19:00+16зюз611812 0.0 1010399
22:00+14зюз4108917 0.0 1010234